Year,Month,Day,Hour,Minute,Value (Times are PST for temperature in C)
2008,06,23,00,00,9.90
2008,06,23,00,01,9.90
2008,06,23,00,02,9.80
2008,06,23,00,03,9.80
2008,06,23,00,04,9.80
2008,06,23,00,05,9.80
2008,06,23,00,06,9.80
2008,06,23,00,07,9.90
2008,06,23,00,08,9.90
2008,06,23,00,09,9.90
2008,06,23,00,10,9.80
2008,06,23,00,11,9.80
2008,06,23,00,12,9.80
2008,06,23,00,13,9.80
2008,06,23,00,14,9.80
2008,06,23,00,15,9.80
2008,06,23,00,16,9.80
2008,06,23,00,17,9.80
2008,06,23,00,18,9.80
2008,06,23,00,19,9.80
2008,06,23,00,20,9.80
2008,06,23,00,21,9.70
2008,06,23,00,22,9.70
2008,06,23,00,23,9.70
2008,06,23,00,24,9.70
2008,06,23,00,25,9.80
2008,06,23,00,26,9.80
2008,06,23,00,27,9.80
2008,06,23,00,28,9.80
2008,06,23,00,29,9.80
2008,06,23,00,30,9.90
2008,06,23,00,31,9.90
2008,06,23,00,32,9.90
2008,06,23,00,33,9.90
2008,06,23,00,34,9.90
2008,06,23,00,35,9.90
2008,06,23,00,36,9.90
2008,06,23,00,37,9.90
2008,06,23,00,38,10.00
2008,06,23,00,39,10.10
2008,06,23,00,40,10.10
2008,06,23,00,41,10.10
2008,06,23,00,42,10.10
2008,06,23,00,43,10.10
2008,06,23,00,44,10.10
2008,06,23,00,45,10.10
2008,06,23,00,46,10.10
2008,06,23,00,47,10.10
2008,06,23,00,48,10.10
2008,06,23,00,49,10.10
2008,06,23,00,50,10.10
2008,06,23,00,51,10.10
2008,06,23,00,52,10.10
2008,06,23,00,53,10.10
2008,06,23,00,54,10.10
2008,06,23,00,55,10.10
2008,06,23,00,56,10.10
2008,06,23,00,57,10.10
2008,06,23,00,58,10.10
2008,06,23,00,59,10.10
2008,06,23,01,00,9.90
2008,06,23,01,01,9.90
2008,06,23,01,02,9.90
2008,06,23,01,03,9.90
2008,06,23,01,04,9.90
2008,06,23,01,05,9.90
2008,06,23,01,06,9.90
2008,06,23,01,07,9.90
2008,06,23,01,08,9.90
2008,06,23,01,09,9.90
2008,06,23,01,10,9.90
2008,06,23,01,11,10.10
2008,06,23,01,12,10.10
2008,06,23,01,13,10.10
2008,06,23,01,14,10.10
2008,06,23,01,15,10.10
2008,06,23,01,16,10.10
2008,06,23,01,17,10.10
2008,06,23,01,18,10.10
2008,06,23,01,19,10.10
2008,06,23,01,20,10.10
2008,06,23,01,21,10.10
2008,06,23,01,22,10.10
2008,06,23,01,23,10.10
2008,06,23,01,24,10.10
2008,06,23,01,25,10.10
2008,06,23,01,26,10.10
2008,06,23,01,27,10.10
2008,06,23,01,28,10.10
2008,06,23,01,29,10.10
2008,06,23,01,30,10.10
2008,06,23,01,31,10.10
2008,06,23,01,32,10.10
2008,06,23,01,33,10.20
2008,06,23,01,34,10.20
2008,06,23,01,35,10.10
2008,06,23,01,36,10.20
2008,06,23,01,37,10.20
2008,06,23,01,38,10.20
2008,06,23,01,39,10.20
2008,06,23,01,40,10.20
2008,06,23,01,41,10.20
2008,06,23,01,42,10.20
2008,06,23,01,43,10.20
2008,06,23,01,44,10.20
2008,06,23,01,45,10.20
2008,06,23,01,46,10.20
2008,06,23,01,47,10.20
2008,06,23,01,48,10.20
2008,06,23,01,49,10.20
2008,06,23,01,50,10.20
2008,06,23,01,51,10.30
2008,06,23,01,52,10.20
2008,06,23,01,53,10.20
2008,06,23,01,54,10.20
2008,06,23,01,55,10.10
2008,06,23,01,56,10.10
2008,06,23,01,57,10.10
2008,06,23,01,58,10.10
2008,06,23,01,59,10.00
2008,06,23,02,00,9.90
2008,06,23,02,01,9.90
2008,06,23,02,02,9.90
2008,06,23,02,03,9.90
2008,06,23,02,04,9.90
2008,06,23,02,05,9.90
2008,06,23,02,06,9.80
2008,06,23,02,07,9.80
2008,06,23,02,08,9.80
2008,06,23,02,09,9.80
2008,06,23,02,10,9.80
2008,06,23,02,11,9.80
2008,06,23,02,12,9.70
2008,06,23,02,13,9.70
2008,06,23,02,14,9.70
2008,06,23,02,15,9.70
2008,06,23,02,16,9.70
2008,06,23,02,17,9.70
2008,06,23,02,18,9.70
2008,06,23,02,19,9.70
2008,06,23,02,20,9.70
2008,06,23,02,21,9.70
2008,06,23,02,22,9.70
2008,06,23,02,23,9.70
2008,06,23,02,24,9.70
2008,06,23,02,25,9.70
2008,06,23,02,26,9.70
2008,06,23,02,27,9.70
2008,06,23,02,28,9.70
2008,06,23,02,29,9.70
2008,06,23,02,30,9.70
2008,06,23,02,31,9.70
2008,06,23,02,32,9.70
2008,06,23,02,33,9.70
2008,06,23,02,34,9.70
2008,06,23,02,35,9.70
2008,06,23,02,36,9.70
2008,06,23,02,37,9.70
2008,06,23,02,38,9.70
2008,06,23,02,39,9.70
2008,06,23,02,40,9.70
2008,06,23,02,41,9.70
2008,06,23,02,42,9.70
2008,06,23,02,43,9.60
2008,06,23,02,44,9.60
2008,06,23,02,45,9.60
2008,06,23,02,46,9.60
2008,06,23,02,47,9.60
2008,06,23,02,48,9.60
2008,06,23,02,49,9.60
2008,06,23,02,50,9.50
2008,06,23,02,51,9.50
2008,06,23,02,52,9.50
2008,06,23,02,53,9.50
2008,06,23,02,54,9.50
2008,06,23,02,55,9.50
2008,06,23,02,56,9.50
2008,06,23,02,57,9.50
2008,06,23,02,58,9.40
2008,06,23,02,59,9.40
2008,06,23,03,00,9.40
2008,06,23,03,01,9.40
2008,06,23,03,02,9.40
2008,06,23,03,03,9.40
2008,06,23,03,04,9.40
2008,06,23,03,05,9.40
2008,06,23,03,06,9.30
2008,06,23,03,07,9.30
2008,06,23,03,08,9.30
2008,06,23,03,09,9.30
2008,06,23,03,10,9.20
2008,06,23,03,11,9.20
2008,06,23,03,12,9.20
2008,06,23,03,13,9.20
2008,06,23,03,14,9.20
2008,06,23,03,15,9.20
2008,06,23,03,16,9.20
2008,06,23,03,17,9.20
2008,06,23,03,18,9.20
2008,06,23,03,19,9.20
2008,06,23,03,20,9.10
2008,06,23,03,21,9.10
2008,06,23,03,22,9.10
2008,06,23,03,23,9.00
2008,06,23,03,24,9.00
2008,06,23,03,25,9.00
2008,06,23,03,26,8.90
2008,06,23,03,27,8.90
2008,06,23,03,28,8.90
2008,06,23,03,29,8.80
2008,06,23,03,30,8.80
2008,06,23,03,31,8.70
2008,06,23,03,32,8.70
2008,06,23,03,33,8.70
2008,06,23,03,34,8.70
2008,06,23,03,35,8.70
2008,06,23,03,36,8.70
2008,06,23,03,37,8.70
2008,06,23,03,38,8.70
2008,06,23,03,39,8.70
2008,06,23,03,40,8.70
2008,06,23,03,41,8.70
2008,06,23,03,42,8.70
2008,06,23,03,43,8.70
2008,06,23,03,44,8.70
2008,06,23,03,45,8.80
2008,06,23,03,46,8.80
2008,06,23,03,47,8.80
2008,06,23,03,48,8.90
2008,06,23,03,49,8.90
2008,06,23,03,50,8.90
2008,06,23,03,51,9.00
2008,06,23,03,52,9.00
2008,06,23,03,53,9.00
2008,06,23,03,54,9.00
2008,06,23,03,55,9.00
2008,06,23,03,56,9.00
2008,06,23,03,57,9.00
2008,06,23,03,58,9.00
2008,06,23,03,59,9.00
2008,06,23,04,00,9.00
2008,06,23,04,01,9.00
2008,06,23,04,02,9.00
2008,06,23,04,03,9.00
2008,06,23,04,04,8.90
2008,06,23,04,05,8.90
2008,06,23,04,06,8.90
2008,06,23,04,07,8.90
2008,06,23,04,08,8.90
2008,06,23,04,09,8.80
2008,06,23,04,10,8.80
2008,06,23,04,11,8.70
2008,06,23,04,12,8.70
2008,06,23,04,13,8.70
2008,06,23,04,14,8.60
2008,06,23,04,15,8.50
2008,06,23,04,16,8.40
2008,06,23,04,17,8.40
2008,06,23,04,18,8.30
2008,06,23,04,19,8.30
2008,06,23,04,20,8.20
2008,06,23,04,21,8.20
2008,06,23,04,22,8.10
2008,06,23,04,23,8.00
2008,06,23,04,24,7.90
2008,06,23,04,25,7.90
2008,06,23,04,26,7.80
2008,06,23,04,27,7.60
2008,06,23,04,28,7.50
2008,06,23,04,29,7.50
2008,06,23,04,30,7.40
2008,06,23,04,31,7.30
2008,06,23,04,32,7.30
2008,06,23,04,33,7.20
2008,06,23,04,34,7.20
2008,06,23,04,35,7.10
2008,06,23,04,36,7.10
2008,06,23,04,37,7.00
2008,06,23,04,38,7.00
2008,06,23,04,39,7.00
2008,06,23,04,40,6.90
2008,06,23,04,41,6.90
2008,06,23,04,42,6.90
2008,06,23,04,43,6.80
2008,06,23,04,44,6.80
2008,06,23,04,45,6.80
2008,06,23,04,46,6.80
2008,06,23,04,47,6.80
2008,06,23,04,48,6.80
2008,06,23,04,49,6.80
2008,06,23,04,50,6.70
2008,06,23,04,51,6.70
2008,06,23,04,52,6.70
2008,06,23,04,53,6.60
2008,06,23,04,54,6.60
2008,06,23,04,55,6.60
2008,06,23,04,56,6.60
2008,06,23,04,57,6.60
2008,06,23,04,58,6.60
2008,06,23,04,59,6.60
2008,06,23,05,00,6.60
2008,06,23,05,01,6.60
2008,06,23,05,02,6.60
2008,06,23,05,03,6.60
2008,06,23,05,04,6.60
2008,06,23,05,05,6.60
2008,06,23,05,06,6.60
2008,06,23,05,07,6.60
2008,06,23,05,08,6.60
2008,06,23,05,09,6.60
2008,06,23,05,10,6.60
2008,06,23,05,11,6.60
2008,06,23,05,12,6.60
2008,06,23,05,13,6.60
2008,06,23,05,14,6.60
2008,06,23,05,15,6.60
2008,06,23,05,16,6.60
2008,06,23,05,17,6.60
2008,06,23,05,18,6.40
2008,06,23,05,19,6.40
2008,06,23,05,20,6.40
2008,06,23,05,21,6.40
2008,06,23,05,22,6.40
2008,06,23,05,23,6.40
2008,06,23,05,24,6.40
2008,06,23,05,25,6.40
2008,06,23,05,26,6.30
2008,06,23,05,27,6.30
2008,06,23,05,28,6.30
2008,06,23,05,29,6.30
2008,06,23,05,30,6.30
2008,06,23,05,31,6.30
2008,06,23,05,32,6.30
2008,06,23,05,33,6.30
2008,06,23,05,34,6.30
2008,06,23,05,35,6.20
2008,06,23,05,36,6.20
2008,06,23,05,37,6.20
2008,06,23,05,38,6.20
2008,06,23,05,39,6.20
2008,06,23,05,40,6.20
2008,06,23,05,41,6.20
2008,06,23,05,42,6.20
2008,06,23,05,43,6.20
2008,06,23,05,44,6.20
2008,06,23,05,45,6.20
2008,06,23,05,46,6.20
2008,06,23,05,47,6.20
2008,06,23,05,48,6.20
2008,06,23,05,49,6.20
2008,06,23,05,50,6.20
2008,06,23,05,51,6.20
2008,06,23,05,52,6.20
2008,06,23,05,53,6.20
2008,06,23,05,54,6.20
2008,06,23,05,55,6.20
2008,06,23,05,56,6.20
2008,06,23,05,57,6.30
2008,06,23,05,58,6.30
2008,06,23,05,59,6.40
2008,06,23,06,00,6.40
2008,06,23,06,01,6.40
2008,06,23,06,02,6.50
2008,06,23,06,03,6.60
2008,06,23,06,04,6.60
2008,06,23,06,05,6.60
2008,06,23,06,06,6.70
2008,06,23,06,07,6.70
2008,06,23,06,08,6.70
2008,06,23,06,09,6.80
2008,06,23,06,10,6.80
2008,06,23,06,11,6.90
2008,06,23,06,12,7.00
2008,06,23,06,13,7.00
2008,06,23,06,14,7.10
2008,06,23,06,15,7.10
2008,06,23,06,16,7.20
2008,06,23,06,17,7.20
2008,06,23,06,18,7.10
2008,06,23,06,19,7.10
2008,06,23,06,20,7.10
2008,06,23,06,21,7.10
2008,06,23,06,22,7.10
2008,06,23,06,23,7.10
2008,06,23,06,24,7.10
2008,06,23,06,25,7.10
2008,06,23,06,26,7.10
2008,06,23,06,27,7.10
2008,06,23,06,28,7.10
2008,06,23,06,29,7.20
2008,06,23,06,30,7.20
2008,06,23,06,31,7.30
2008,06,23,06,32,7.40
2008,06,23,06,33,7.50
2008,06,23,06,34,7.60
2008,06,23,06,35,7.60
2008,06,23,06,36,7.60
2008,06,23,06,37,7.70
2008,06,23,06,38,7.70
2008,06,23,06,39,7.80
2008,06,23,06,40,7.80
2008,06,23,06,41,7.80
2008,06,23,06,42,7.80
2008,06,23,06,43,7.80
2008,06,23,06,44,7.90
2008,06,23,06,45,8.00
2008,06,23,06,46,8.00
2008,06,23,06,47,8.10
2008,06,23,06,48,8.20
2008,06,23,06,49,8.40
2008,06,23,06,50,8.40
2008,06,23,06,51,8.50
2008,06,23,06,52,8.60
2008,06,23,06,53,8.70
2008,06,23,06,54,8.70
2008,06,23,06,55,8.80
2008,06,23,06,56,8.90
2008,06,23,06,57,8.90
2008,06,23,06,58,9.00
2008,06,23,06,59,9.00
2008,06,23,07,00,9.10
2008,06,23,07,01,9.20
2008,06,23,07,02,9.20
2008,06,23,07,03,9.30
2008,06,23,07,04,9.30
2008,06,23,07,05,9.40
2008,06,23,07,06,9.40
2008,06,23,07,07,9.50
2008,06,23,07,08,9.50
2008,06,23,07,09,9.50
2008,06,23,07,10,9.60
2008,06,23,07,11,9.60
2008,06,23,07,12,9.60
2008,06,23,07,13,9.60
2008,06,23,07,14,9.60
2008,06,23,07,15,9.70
2008,06,23,07,16,9.70
2008,06,23,07,17,9.70
2008,06,23,07,18,9.70
2008,06,23,07,19,9.70
2008,06,23,07,20,9.80
2008,06,23,07,21,9.80
2008,06,23,07,22,9.90
2008,06,23,07,23,9.90
2008,06,23,07,24,9.90
2008,06,23,07,25,9.90
2008,06,23,07,26,9.90
2008,06,23,07,27,9.90
2008,06,23,07,28,9.90
2008,06,23,07,29,9.90
2008,06,23,07,30,10.00
2008,06,23,07,31,10.10
2008,06,23,07,32,10.10
2008,06,23,07,33,10.10
2008,06,23,07,34,10.10
2008,06,23,07,35,10.20
2008,06,23,07,36,10.20
2008,06,23,07,37,10.30
2008,06,23,07,38,10.30
2008,06,23,07,39,10.40
2008,06,23,07,40,10.40
2008,06,23,07,41,10.40
2008,06,23,07,42,10.40
2008,06,23,07,43,10.50
2008,06,23,07,44,10.60
2008,06,23,07,45,10.60
2008,06,23,07,46,10.60
2008,06,23,07,47,10.70
2008,06,23,07,48,10.80
2008,06,23,07,49,10.80
2008,06,23,07,50,10.90
2008,06,23,07,51,10.90
2008,06,23,07,52,10.90
2008,06,23,07,53,10.90
2008,06,23,07,54,11.10
2008,06,23,07,55,11.10
2008,06,23,07,56,11.10
2008,06,23,07,57,11.10
2008,06,23,07,58,11.10
2008,06,23,07,59,11.20
2008,06,23,08,00,11.20
2008,06,23,08,01,11.30
2008,06,23,08,02,11.30
2008,06,23,08,03,11.30
2008,06,23,08,04,11.30
2008,06,23,08,05,11.40
2008,06,23,08,06,11.40
2008,06,23,08,07,11.40
2008,06,23,08,08,11.50
2008,06,23,08,09,11.60
2008,06,23,08,10,11.60
2008,06,23,08,11,11.70
2008,06,23,08,12,11.70
2008,06,23,08,13,11.80
2008,06,23,08,14,11.90
2008,06,23,08,15,12.00
2008,06,23,08,16,12.00
2008,06,23,08,17,12.00
2008,06,23,08,18,12.00
2008,06,23,08,19,12.00
2008,06,23,08,20,12.00
2008,06,23,08,21,12.00
2008,06,23,08,22,12.00
2008,06,23,08,23,12.00
2008,06,23,08,24,12.10
2008,06,23,08,25,12.10
2008,06,23,08,26,12.10
2008,06,23,08,27,12.20
2008,06,23,08,28,12.30
2008,06,23,08,29,12.30
2008,06,23,08,30,12.30
2008,06,23,08,31,12.40
2008,06,23,08,32,12.50
2008,06,23,08,33,12.60
2008,06,23,08,34,12.70
2008,06,23,08,35,12.80
2008,06,23,08,36,12.80
2008,06,23,08,37,12.80
2008,06,23,08,38,12.80
2008,06,23,08,39,12.80
2008,06,23,08,40,12.80
2008,06,23,08,41,12.80
2008,06,23,08,42,12.90
2008,06,23,08,43,13.00
2008,06,23,08,44,13.00
2008,06,23,08,45,12.90
2008,06,23,08,46,12.90
2008,06,23,08,47,12.90
2008,06,23,08,48,12.90
2008,06,23,08,49,12.90
2008,06,23,08,50,12.90
2008,06,23,08,51,12.90
2008,06,23,08,52,12.90
2008,06,23,08,53,12.90
2008,06,23,08,54,13.00
2008,06,23,08,55,13.10
2008,06,23,08,56,13.20
2008,06,23,08,57,13.20
2008,06,23,08,58,13.30
2008,06,23,08,59,13.20
2008,06,23,09,00,13.20
2008,06,23,09,01,13.20
2008,06,23,09,02,13.20
2008,06,23,09,03,13.20
2008,06,23,09,04,13.30
2008,06,23,09,05,13.40
2008,06,23,09,06,13.50
2008,06,23,09,07,13.50
2008,06,23,09,08,13.60
2008,06,23,09,09,13.70
2008,06,23,09,10,13.80
2008,06,23,09,11,13.90
2008,06,23,09,12,14.00
2008,06,23,09,13,14.00
2008,06,23,09,14,14.10
2008,06,23,09,15,14.10
2008,06,23,09,16,14.10
2008,06,23,09,17,14.10
2008,06,23,09,18,14.20
2008,06,23,09,19,14.20
2008,06,23,09,20,14.20
2008,06,23,09,21,14.20
2008,06,23,09,22,14.30
2008,06,23,09,23,14.40
2008,06,23,09,24,14.50
2008,06,23,09,25,14.50
2008,06,23,09,26,14.60
2008,06,23,09,27,14.60
2008,06,23,09,28,14.50
2008,06,23,09,29,14.40
2008,06,23,09,30,14.20
2008,06,23,09,31,14.10
2008,06,23,09,32,14.00
2008,06,23,09,33,14.00
2008,06,23,09,34,13.90
2008,06,23,09,35,13.90
2008,06,23,09,36,13.90
2008,06,23,09,37,13.90
2008,06,23,09,38,13.80
2008,06,23,09,39,13.70
2008,06,23,09,40,13.70
2008,06,23,09,41,13.60
2008,06,23,09,42,13.60
2008,06,23,09,43,13.60
2008,06,23,09,44,13.70
2008,06,23,09,45,13.70
2008,06,23,09,46,13.70
2008,06,23,09,47,13.70
2008,06,23,09,48,13.70
2008,06,23,09,49,13.70
2008,06,23,09,50,13.60
2008,06,23,09,51,13.60
2008,06,23,09,52,13.60
2008,06,23,09,53,13.70
2008,06,23,09,54,13.60
2008,06,23,09,55,13.60
2008,06,23,09,56,13.60
2008,06,23,09,57,13.60
2008,06,23,09,58,13.50
2008,06,23,09,59,13.50
2008,06,23,10,00,13.40
2008,06,23,10,01,13.40
2008,06,23,10,02,13.40
2008,06,23,10,03,13.40
2008,06,23,10,04,13.40
2008,06,23,10,05,13.40
2008,06,23,10,06,13.50
2008,06,23,10,07,13.50
2008,06,23,10,08,13.50
2008,06,23,10,09,13.50
2008,06,23,10,10,13.50
2008,06,23,10,11,13.50
2008,06,23,10,12,13.50
2008,06,23,10,13,13.50
2008,06,23,10,14,13.50
2008,06,23,10,15,13.50
2008,06,23,10,16,13.50
2008,06,23,10,17,13.50
2008,06,23,10,18,13.40
2008,06,23,10,19,13.50
2008,06,23,10,20,13.50
2008,06,23,10,21,13.60
2008,06,23,10,22,13.70
2008,06,23,10,23,13.70
2008,06,23,10,24,13.80
2008,06,23,10,25,13.80
2008,06,23,10,26,13.80
2008,06,23,10,27,13.90
2008,06,23,10,28,13.90
2008,06,23,10,29,13.90
2008,06,23,10,30,13.80
2008,06,23,10,31,13.80
2008,06,23,10,32,13.70
2008,06,23,10,33,13.70
2008,06,23,10,34,13.70
2008,06,23,10,35,13.70
2008,06,23,10,36,13.70
2008,06,23,10,37,13.70
2008,06,23,10,38,13.70
2008,06,23,10,39,13.70
2008,06,23,10,40,13.70
2008,06,23,10,41,13.70
2008,06,23,10,42,13.60
2008,06,23,10,43,13.70
2008,06,23,10,44,13.70
2008,06,23,10,45,13.70
2008,06,23,10,46,13.70
2008,06,23,10,47,13.60
2008,06,23,10,48,13.60
2008,06,23,10,49,13.60
2008,06,23,10,50,13.60
2008,06,23,10,51,13.60
2008,06,23,10,52,13.60
2008,06,23,10,53,13.70
2008,06,23,10,54,13.70
2008,06,23,10,55,13.70
2008,06,23,10,56,13.60
2008,06,23,10,57,13.60
2008,06,23,10,58,13.60
2008,06,23,10,59,13.60
2008,06,23,11,00,13.60
2008,06,23,11,01,13.60
2008,06,23,11,02,13.60
2008,06,23,11,03,13.60
2008,06,23,11,04,13.60
2008,06,23,11,05,13.60
2008,06,23,11,06,13.50
2008,06,23,11,07,13.50
2008,06,23,11,08,13.50
2008,06,23,11,09,13.60
2008,06,23,11,10,13.60
2008,06,23,11,11,13.60
2008,06,23,11,12,13.60
2008,06,23,11,13,13.70
2008,06,23,11,14,13.70
2008,06,23,11,15,13.60
2008,06,23,11,16,13.60
2008,06,23,11,17,13.60
2008,06,23,11,18,13.60
2008,06,23,11,19,13.60
2008,06,23,11,20,13.50
2008,06,23,11,21,13.50
2008,06,23,11,22,13.50
2008,06,23,11,23,13.50
2008,06,23,11,24,13.50
2008,06,23,11,25,13.50
2008,06,23,11,26,13.40
2008,06,23,11,27,13.40
2008,06,23,11,28,13.50
2008,06,23,11,29,13.50
2008,06,23,11,30,13.50
2008,06,23,11,31,13.50
2008,06,23,11,32,13.50
2008,06,23,11,33,13.50
2008,06,23,11,34,13.40
2008,06,23,11,35,13.40
2008,06,23,11,36,13.40
2008,06,23,11,37,13.40
2008,06,23,11,38,13.40
2008,06,23,11,39,13.50
2008,06,23,11,40,13.50
2008,06,23,11,41,13.60
2008,06,23,11,42,13.70
2008,06,23,11,43,13.70
2008,06,23,11,44,13.70
2008,06,23,11,45,13.80
2008,06,23,11,46,13.70
2008,06,23,11,47,13.80
2008,06,23,11,48,13.80
2008,06,23,11,49,13.80
2008,06,23,11,50,13.80
2008,06,23,11,51,13.70
2008,06,23,11,52,13.80
2008,06,23,11,53,13.80
2008,06,23,11,54,13.80
2008,06,23,11,55,13.80
2008,06,23,11,56,13.70
2008,06,23,11,57,13.70
2008,06,23,11,58,13.70
2008,06,23,11,59,13.70
2008,06,23,12,00,13.70
2008,06,23,12,01,13.70
2008,06,23,12,02,13.70
2008,06,23,12,03,13.70
2008,06,23,12,04,13.70
2008,06,23,12,05,13.70
2008,06,23,12,06,13.70
2008,06,23,12,07,13.70
2008,06,23,12,08,13.70
2008,06,23,12,09,13.80
2008,06,23,12,10,13.80
2008,06,23,12,11,13.70
2008,06,23,12,12,13.70
2008,06,23,12,13,13.70
2008,06,23,12,14,13.70
2008,06,23,12,15,13.70
2008,06,23,12,16,13.70
2008,06,23,12,17,13.70
2008,06,23,12,18,13.70
2008,06,23,12,19,13.70
2008,06,23,12,20,13.70
2008,06,23,12,21,13.70
2008,06,23,12,22,13.80
2008,06,23,12,23,13.80
2008,06,23,12,24,13.90
2008,06,23,12,25,13.90
2008,06,23,12,26,13.90
2008,06,23,12,27,13.90
2008,06,23,12,28,13.90
2008,06,23,12,29,13.80
2008,06,23,12,30,13.70
2008,06,23,12,31,13.70
2008,06,23,12,32,13.60
2008,06,23,12,33,13.60
2008,06,23,12,34,13.70
2008,06,23,12,35,13.70
2008,06,23,12,36,13.70
2008,06,23,12,37,13.70
2008,06,23,12,38,13.70
2008,06,23,12,39,13.70
2008,06,23,12,40,13.80
2008,06,23,12,41,13.80
2008,06,23,12,42,13.80
2008,06,23,12,43,13.90
2008,06,23,12,44,14.00
2008,06,23,12,45,14.10
2008,06,23,12,46,14.10
2008,06,23,12,47,14.10
2008,06,23,12,48,14.20
2008,06,23,12,49,14.20
2008,06,23,12,50,14.20
2008,06,23,12,51,14.30
2008,06,23,12,52,14.40
2008,06,23,12,53,14.50
2008,06,23,12,54,14.60
2008,06,23,12,55,14.60
2008,06,23,12,56,14.70
2008,06,23,12,57,14.70
2008,06,23,12,58,14.70
2008,06,23,12,59,14.70
2008,06,23,13,00,14.80
2008,06,23,13,01,14.80
2008,06,23,13,02,14.80
2008,06,23,13,03,14.80
2008,06,23,13,04,14.90
2008,06,23,13,05,14.90
2008,06,23,13,06,15.00
2008,06,23,13,07,15.00
2008,06,23,13,08,15.10
2008,06,23,13,09,15.10
2008,06,23,13,10,15.20
2008,06,23,13,11,15.20
2008,06,23,13,12,15.20
2008,06,23,13,13,15.20
2008,06,23,13,14,15.30
2008,06,23,13,15,15.30
2008,06,23,13,16,15.30
2008,06,23,13,17,15.30
2008,06,23,13,18,15.30
2008,06,23,13,19,15.40
2008,06,23,13,20,15.40
2008,06,23,13,21,15.40
2008,06,23,13,22,15.40
2008,06,23,13,23,15.40
2008,06,23,13,24,15.40
2008,06,23,13,25,15.40
2008,06,23,13,26,15.50
2008,06,23,13,27,15.60
2008,06,23,13,28,15.60
2008,06,23,13,29,15.50
2008,06,23,13,30,15.50
2008,06,23,13,31,15.60
2008,06,23,13,32,15.50
2008,06,23,13,33,15.60
2008,06,23,13,34,15.60
2008,06,23,13,35,15.60
2008,06,23,13,36,15.60
2008,06,23,13,37,15.70
2008,06,23,13,38,15.80
2008,06,23,13,39,15.80
2008,06,23,13,40,15.90
2008,06,23,13,41,15.90
2008,06,23,13,42,16.00
2008,06,23,13,43,16.00
2008,06,23,13,44,15.90
2008,06,23,13,45,16.00
2008,06,23,13,46,16.10
2008,06,23,13,47,16.10
2008,06,23,13,48,16.10
2008,06,23,13,49,16.10
2008,06,23,13,50,16.10
2008,06,23,13,51,16.10
2008,06,23,13,52,16.10
2008,06,23,13,53,16.10
2008,06,23,13,54,16.10
2008,06,23,13,55,16.10
2008,06,23,13,56,16.10
2008,06,23,13,57,16.10
2008,06,23,13,58,16.20
2008,06,23,13,59,16.30
2008,06,23,14,00,16.30
2008,06,23,14,01,16.30
2008,06,23,14,02,16.20
2008,06,23,14,03,16.10
2008,06,23,14,04,16.10
2008,06,23,14,05,16.10
2008,06,23,14,06,16.10
2008,06,23,14,07,16.00
2008,06,23,14,08,15.90
2008,06,23,14,09,15.60
2008,06,23,14,10,15.50
2008,06,23,14,11,15.50
2008,06,23,14,12,15.40
2008,06,23,14,13,15.40
2008,06,23,14,14,15.40
2008,06,23,14,15,15.40
2008,06,23,14,16,15.30
2008,06,23,14,17,15.20
2008,06,23,14,18,15.10
2008,06,23,14,19,15.00
2008,06,23,14,20,15.00
2008,06,23,14,21,15.10
2008,06,23,14,22,15.00
2008,06,23,14,23,14.90
2008,06,23,14,24,14.80
2008,06,23,14,25,14.70
2008,06,23,14,26,14.70
2008,06,23,14,27,14.70
2008,06,23,14,28,14.70
2008,06,23,14,29,14.80
2008,06,23,14,30,15.00
2008,06,23,14,31,15.20
2008,06,23,14,32,15.30
2008,06,23,14,33,15.30
2008,06,23,14,34,15.50
2008,06,23,14,35,15.50
2008,06,23,14,36,15.60
2008,06,23,14,37,15.80
2008,06,23,14,38,15.90
2008,06,23,14,39,15.90
2008,06,23,14,40,16.00
2008,06,23,14,41,16.10
2008,06,23,14,42,16.10
2008,06,23,14,43,16.20
2008,06,23,14,44,16.30
2008,06,23,14,45,16.40
2008,06,23,14,46,16.50
2008,06,23,14,47,16.60
2008,06,23,14,48,16.70
2008,06,23,14,49,16.70
2008,06,23,14,50,16.70
2008,06,23,14,51,16.70
2008,06,23,14,52,16.80
2008,06,23,14,53,16.80
2008,06,23,14,54,16.80
2008,06,23,14,55,16.80
2008,06,23,14,56,16.80
2008,06,23,14,57,16.70
2008,06,23,14,58,16.80
2008,06,23,14,59,16.80
2008,06,23,15,00,16.70
2008,06,23,15,01,16.70
2008,06,23,15,02,16.70
2008,06,23,15,03,16.70
2008,06,23,15,04,16.80
2008,06,23,15,05,16.80
2008,06,23,15,06,16.80
2008,06,23,15,07,16.80
2008,06,23,15,08,16.80
2008,06,23,15,09,16.80
2008,06,23,15,10,16.70
2008,06,23,15,11,16.70
2008,06,23,15,12,16.60
2008,06,23,15,13,16.50
2008,06,23,15,14,16.40
2008,06,23,15,15,16.20
2008,06,23,15,16,16.10
2008,06,23,15,17,15.90
2008,06,23,15,18,15.80
2008,06,23,15,19,15.60
2008,06,23,15,20,15.60
2008,06,23,15,21,15.50
2008,06,23,15,22,15.30
2008,06,23,15,23,15.20
2008,06,23,15,24,15.10
2008,06,23,15,25,15.10
2008,06,23,15,26,15.10
2008,06,23,15,27,15.20
2008,06,23,15,28,15.50
2008,06,23,15,29,15.80
2008,06,23,15,30,16.10
2008,06,23,15,31,16.30
2008,06,23,15,32,16.40
2008,06,23,15,33,16.40
2008,06,23,15,34,16.40
2008,06,23,15,35,16.60
2008,06,23,15,36,16.60
2008,06,23,15,37,16.60
2008,06,23,15,38,16.70
2008,06,23,15,39,16.80
2008,06,23,15,40,16.90
2008,06,23,15,41,16.90
2008,06,23,15,42,17.00
2008,06,23,15,43,17.00
2008,06,23,15,44,17.10
2008,06,23,15,45,17.10
2008,06,23,15,46,17.20
2008,06,23,15,47,17.30
2008,06,23,15,48,17.30
2008,06,23,15,49,17.40
2008,06,23,15,50,17.50
2008,06,23,15,51,17.50
2008,06,23,15,52,17.70
2008,06,23,15,53,17.70
2008,06,23,15,54,17.60
2008,06,23,15,55,17.60
2008,06,23,15,56,17.40
2008,06,23,15,57,17.40
2008,06,23,15,58,17.30
2008,06,23,15,59,17.20
2008,06,23,16,00,17.10
2008,06,23,16,01,17.00
2008,06,23,16,02,16.90
2008,06,23,16,03,16.90
2008,06,23,16,04,16.90
2008,06,23,16,05,16.80
2008,06,23,16,06,16.70
2008,06,23,16,07,16.60
2008,06,23,16,08,16.40
2008,06,23,16,09,16.20
2008,06,23,16,10,16.00
2008,06,23,16,11,15.80
2008,06,23,16,12,15.70
2008,06,23,16,13,15.60
2008,06,23,16,14,15.60
2008,06,23,16,15,15.70
2008,06,23,16,16,15.70
2008,06,23,16,17,15.70
2008,06,23,16,18,15.80
2008,06,23,16,19,15.80
2008,06,23,16,20,15.90
2008,06,23,16,21,16.00
2008,06,23,16,22,16.10
2008,06,23,16,23,16.10
2008,06,23,16,24,16.10
2008,06,23,16,25,15.90
2008,06,23,16,26,15.80
2008,06,23,16,27,15.80
2008,06,23,16,28,15.70
2008,06,23,16,29,15.70
2008,06,23,16,30,15.70
2008,06,23,16,31,15.70
2008,06,23,16,32,15.80
2008,06,23,16,33,15.80
2008,06,23,16,34,15.80
2008,06,23,16,35,15.90
2008,06,23,16,36,15.90
2008,06,23,16,37,15.80
2008,06,23,16,38,15.80
2008,06,23,16,39,15.80
2008,06,23,16,40,15.80
2008,06,23,16,41,15.80
2008,06,23,16,42,15.80
2008,06,23,16,43,15.80
2008,06,23,16,44,15.80
2008,06,23,16,45,15.90
2008,06,23,16,46,16.00
2008,06,23,16,47,16.10
2008,06,23,16,48,16.10
2008,06,23,16,49,16.00
2008,06,23,16,50,15.90
2008,06,23,16,51,15.90
2008,06,23,16,52,15.90
2008,06,23,16,53,15.80
2008,06,23,16,54,15.70
2008,06,23,16,55,15.70
2008,06,23,16,56,15.70
2008,06,23,16,57,15.70
2008,06,23,16,58,15.80
2008,06,23,16,59,15.80
2008,06,23,17,00,15.80
2008,06,23,17,01,15.90
2008,06,23,17,02,15.90
2008,06,23,17,03,15.80
2008,06,23,17,04,15.80
2008,06,23,17,05,15.70
2008,06,23,17,06,15.70
2008,06,23,17,07,15.60
2008,06,23,17,08,15.50
2008,06,23,17,09,15.50
2008,06,23,17,10,15.40
2008,06,23,17,11,15.30
2008,06,23,17,12,15.30
2008,06,23,17,13,15.30
2008,06,23,17,14,15.30
2008,06,23,17,15,15.30
2008,06,23,17,16,15.30
2008,06,23,17,17,15.30
2008,06,23,17,18,15.30
2008,06,23,17,19,15.30
2008,06,23,17,20,15.30
2008,06,23,17,21,15.30
2008,06,23,17,22,15.30
2008,06,23,17,23,15.30
2008,06,23,17,24,15.30
2008,06,23,17,25,15.30
2008,06,23,17,26,15.30
2008,06,23,17,27,15.40
2008,06,23,17,28,15.40
2008,06,23,17,29,15.50
2008,06,23,17,30,15.50
2008,06,23,17,31,15.50
2008,06,23,17,32,15.50
2008,06,23,17,33,15.50
2008,06,23,17,34,15.60
2008,06,23,17,35,15.60